DW2762 Weather Reports


Display with metric or nautical units.
time (UTC)temp
F
wind
direction
speed
MPH
gust
MPH
rain 1hr
in
rain 24hr
in
rain mn
in
humidity
%
barometer
mb
20260503004613 46 327 0.0 1.0 0.00 0.00 0.00 74 1019.5
20260503003120 46 316 1.0 2.0 0.00 0.00 0.00 73 1019.6
20260503001611 46 316 1.0 2.0 0.00 0.00 0.00 73 1019.6
20260503000111 47 315 2.0 4.0 0.00 0.00 0.00 71 1019.9
20260502234613 47 286 1.0 3.0 0.00 0.00 0.00 70 1020.0
20260502233111 49 314 0.0 0.0 0.00 0.00 0.00 68 1020.1
20260502231611 49 314 1.0 2.0 0.00 0.00 0.00 67 1020.0
20260502230111 49 312 1.0 3.0 0.00 0.00 0.00 67 1020.0
20260502224611 49 310 2.0 3.0 0.00 0.00 0.00 67 1020.1
20260502223112 50 309 0.0 3.0 0.00 0.00 0.00 67 1020.2
20260502221611 50 301 2.0 4.0 0.00 0.00 0.00 66 1020.3
20260502220110 50 302 1.0 4.0 0.00 0.00 0.00 65 1020.4
20260502214610 51 321 0.0 2.0 0.00 0.00 0.00 64 1020.4
20260502213110 52 309 1.0 2.0 0.00 0.00 0.00 64 1020.5
20260502211610 52 309 1.0 3.0 0.00 0.00 0.00 61 1020.5
20260502210110 52 310 1.0 2.0 0.00 0.00 0.00 61 1020.5
20260502204610 53 310 1.0 3.0 0.00 0.00 0.00 61 1020.6
20260502203110 53 293 1.0 3.0 0.00 0.00 0.00 60 1020.6
20260502201610 55 292 1.0 2.0 0.00 0.00 0.00 57 1020.7
20260502200110 56 292 0.0 3.0 0.00 0.00 0.00 55 1020.7
20260502193109 57 299 2.0 3.0 0.00 0.00 0.00 54 1020.8
20260502191611 58 156 0.0 0.0 0.00 0.00 0.00 53 1020.7
20260502190109 59 156 0.0 0.0 0.00 0.00 0.00 52 1020.6
20260502181609 63 153 0.0 0.0 0.00 0.00 0.00 49 1020.4
20260502180109 65 153 0.0 0.0 0.00 0.00 0.00 46 1020.3
20260502170109 71 85 2.0 4.0 0.00 0.00 0.00 38 1020.4
20260502163108 74 90 1.0 3.0 0.00 0.00 0.00 36 1020.7
20260502161609 74 144 2.0 4.0 0.00 0.00 0.00 35 1020.9
20260502160108 75 172 4.0 6.0 0.00 0.00 0.00 34 1021.0
20260502151613 75 65 2.0 4.0 0.00 0.00 0.00 32 1021.4
20260502150113 75 145 2.0 3.0 0.00 0.00 0.00 35 1021.6
20260502140113 75 13 3.0 7.0 0.00 0.00 0.00 31 1022.0
20260502130112 74 157 1.0 6.0 0.00 0.00 0.00 33 1022.7
20260502123112 74 177 2.0 7.0 0.00 0.00 0.00 36 1023.1
20260502121612 75 150 4.0 8.0 0.00 0.00 0.00 37 1023.3
20260502120112 74 5 4.0 8.0 0.00 0.00 0.00 32 1023.4
20260502113111 73 54 3.0 9.0 0.00 0.00 0.00 33 1023.8
20260502111611 72 348 3.0 4.0 0.00 0.00 0.00 36 1024.2
20260502110111 72 311 4.0 6.0 0.00 0.00 0.00 34 1024.3
20260502103111 72 16 3.0 5.0 0.00 0.00 0.00 36 1024.8
20260502101611 71 200 3.0 5.0 0.00 0.00 0.00 37 1025.0
20260502080110 67 65 3.0 6.0 0.00 0.00 0.00 45 1026.2
20260502070110 62 349 5.0 8.0 0.00 0.00 0.00 53 1026.4
20260502064610 61 360 3.0 8.0 0.00 0.00 0.00 54 1026.4
20260502063110 59 321 0.0 2.0 0.00 0.00 0.00 62 1026.6
20260502060111 55 60 3.0 6.0 0.00 0.00 0.00 64 1026.5
20260502054609 53 313 1.0 2.0 0.00 0.00 0.00 70 1026.6
20260502053109 49 313 0.0 0.0 0.00 0.00 0.00 76 1026.6
20260502051609 47 313 0.0 0.0 0.00 0.00 0.00 78 1026.6
20260502044609 43 304 0.0 2.0 0.00 0.00 0.00 84 1026.5
20260502043109 42 304 0.0 0.0 0.00 0.00 0.00 85 1026.4
20260502040109 40 287 0.0 1.0 0.00 0.00 0.00 85 1026.3
20260502034614 40 288 0.0 2.0 0.00 0.00 0.00 85 1026.2
20260502033114 40 279 2.0 2.0 0.00 0.00 0.00 84 1026.2
20260502031613 40 275 0.0 0.0 0.00 0.00 0.00 83 1026.2
20260502030113 41 275 0.0 0.0 0.00 0.00 0.00 84 1026.2
20260502024613 41 341 0.0 0.0 0.00 0.00 0.00 82 1026.3
20260502023113 41 341 0.0 2.0 0.00 0.00 0.00 81 1026.2
20260502020113 43 341 0.0 0.0 0.00 0.00 0.00 80 1026.2
20260502013113 44 341 0.0 0.0 0.00 0.00 0.00 77 1026.5
20260502011613 46 341 0.0 0.0 0.00 0.00 0.00 75 1026.5
20260502010113 46 340 0.0 1.0 0.00 0.00 0.00 75 1026.6